Satellite-Ground Cal/Val Region Overpasses Predictions

Prediction of Satellite NPP Overpassing Cal/Val Region: PacN

Region Location: (Latitude: 15.00, Longitude: 179.40) to (Latitude: 23.50, Longitude: 200.60).

Table of predicted overpasses for the next 14.0 days since TLE Epoch: 1/13/2020
Interval Starting Time Starting Location Ending Time Ending Location
1 01/14/2020 13:36:38 ( 18.71, 180.00) 01/14/2020 13:37:20 ( 16.24, 179.41)
2 01/19/2020 01:12:32 ( 19.30, 179.99) 01/19/2020 01:13:13 ( 21.70, 179.40)
3 01/19/2020 13:41:33 ( 23.44, 179.59) 01/19/2020 13:41:46 ( 22.68, 179.40)


NCC Satellite Cal/Val Overpasses Prediction Service
